DateTime,F1_A11,F1_S11,BsB_S11,BsG_S11,BsR_S11,BbsB_S11,BbsG_S11,BbsR_S11,BaB_A11,BaG_A11,BaR_A11,T_S11,U_S11,P_S11,T1_A11
2016-05-27T00:00:00Z,0000388,21000608,,,,,,,,,,26.0,00.3,0652.3,34.5
2016-05-27T00:01:00Z,0000388,21000608,,,,,,,,,,26.0,00.3,0652.3,34.5
2016-05-27T00:02:00Z,0000388,21000608,,,,,,,,,,26.0,00.3,0652.3,34.5
2016-05-27T00:03:00Z,0000388,61000608,,,,,,,,,,26.1,00.3,0652.3,34.5
2016-05-27T00:04:00Z,0000388,41000608,0003.31,0002.74,0001.24,0000.45,0000.29,0000.18,0000.21,0000.40,0000.12,26.2,00.3,0653.1,34.5
2016-05-27T00:05:00Z,0000388,01000608,0004.31,0002.31,0001.85,0000.84,0000.11,0000.11,0000.26,0000.04,0000.15,26.2,00.2,0653.2,34.5
2016-05-27T00:06:00Z,0000388,01000608,0003.71,0002.13,0001.16,0000.76,0000.16,0000.23,0000.22,0000.36,0000.13,26.2,00.2,0653.2,34.5
2016-05-27T00:07:00Z,0000388,01000608,0004.21,0002.44,0001.80,-000.31,0000.10,0000.32,0000.10,0000.23,-000.05,26.2,00.2,0653.1,34.5
2016-05-27T00:08:00Z,0000388,01000608,0003.93,0001.97,0001.12,-000.03,-000.06,0000.23,0000.29,0000.13,0000.53,26.2,00.2,0653.2,34.5
2016-05-27T00:09:00Z,0000388,01000608,0004.10,0002.78,0001.14,0000.52,0000.34,-000.21,0000.28,0000.03,-000.13,26.2,00.1,0653.1,34.5
2016-05-27T00:10:00Z,0000388,01000608,0003.80,0002.99,0001.30,0000.16,0000.45,0000.03,0000.01,0000.19,-000.03,26.2,00.2,0653.2,34.5
2016-05-27T00:11:00Z,0000388,01000608,0003.35,0002.21,0001.55,-000.16,0000.11,0000.10,0000.25,0000.17,0000.35,26.2,00.2,0653.2,34.5
2016-05-27T00:12:00Z,0000388,01000608,0004.12,0001.59,0001.32,0000.61,0000.32,0000.13,0000.32,0000.30,0000.02,26.2,00.2,0653.2,34.5
2016-05-27T00:13:00Z,0000388,01000608,0004.28,0002.56,0001.33,0000.55,0000.58,-000.06,0000.08,0000.28,0000.37,26.2,00.2,0653.2,34.5
2016-05-27T00:14:00Z,0000388,01000608,0003.98,0003.17,0001.44,0000.47,-000.19,0000.13,0000.25,0000.01,-000.03,26.2,00.2,0653.2,34.5
2016-05-27T00:15:00Z,0000388,01000608,0004.25,0002.44,0001.79,0000.76,-000.03,0000.06,0000.13,0000.11,-000.08,26.2,00.2,0653.2,34.5
2016-05-27T00:16:00Z,0000388,01000608,0004.74,0002.84,0000.90,0000.36,-000.02,0000.10,0000.40,0000.36,0000.59,26.2,00.2,0653.2,34.5
2016-05-27T00:17:00Z,0000388,01000608,0003.61,0002.20,0000.90,0000.21,0000.29,0000.26,0000.11,0000.14,0000.02,26.2,00.1,0653.3,34.5
2016-05-27T00:18:00Z,0000388,01000608,0004.21,0002.45,0001.85,-000.31,0000.68,0000.32,0000.19,0000.32,0000.17,26.2,00.1,0653.2,34.5
2016-05-27T00:19:00Z,0000388,01000608,0003.64,0002.31,0001.23,0000.99,0000.39,0000.42,0000.29,0000.15,0000.17,26.2,00.2,0653.2,34.5
2016-05-27T00:20:00Z,0000388,01000608,0004.28,0001.98,0001.59,0000.68,0000.37,0000.37,0000.23,0000.08,0000.04,26.2,00.2,0653.3,34.5
2016-05-27T00:21:00Z,0000388,01000608,0004.12,0002.69,0001.36,0001.10,0000.14,0000.00,0000.12,0000.13,0000.03,26.2,00.1,0653.3,34.5
2016-05-27T00:22:00Z,0000388,01000608,0003.11,0002.51,0001.12,0000.37,0000.02,0000.26,0000.32,0000.21,0000.46,26.2,00.1,0653.3,34.5
2016-05-27T00:23:00Z,0000388,01000608,0003.11,0002.84,0001.18,0000.18,0000.18,0000.21,-000.08,0000.15,-000.19,26.2,00.2,0653.3,34.5
2016-05-27T00:24:00Z,0000388,01000608,0003.50,0002.44,0001.42,0000.31,0000.47,0000.52,0000.49,0000.11,0000.48,26.2,00.1,0653.3,34.5
2016-05-27T00:25:00Z,0000388,01000608,0003.54,0002.47,0001.53,0000.16,0000.24,0000.26,-000.04,0000.33,0000.35,26.2,00.1,0653.3,34.5
2016-05-27T00:26:00Z,0000388,01000608,0003.59,0002.32,0001.58,0000.53,0000.10,0000.29,0000.20,0000.20,-000.04,26.2,00.1,0653.3,34.5
2016-05-27T00:27:00Z,0000388,01000608,0003.59,0002.61,0001.11,0000.00,0000.63,0000.19,0000.17,0000.25,-000.03,26.2,00.1,0653.3,34.5
2016-05-27T00:28:00Z,0000388,01000608,0004.27,0002.08,0001.12,0000.08,0000.29,-000.08,0000.30,-000.01,0000.28,26.2,00.2,0653.4,34.5
2016-05-27T00:29:00Z,0000388,01000608,0002.98,0002.14,0001.43,0000.13,0000.39,0000.55,0000.26,0000.27,0000.21,26.2,00.1,0653.4,34.5
2016-05-27T00:30:00Z,0000388,01000608,0003.71,0002.38,0001.57,0000.34,0000.32,0000.15,0000.22,0000.20,0000.01,26.2,00.1,0653.3,34.6
2016-05-27T00:31:00Z,0000388,01000608,0003.52,0002.42,0001.95,0000.13,0000.29,0000.13,0000.22,0000.28,0000.08,26.2,00.1,0653.4,34.6
2016-05-27T00:32:00Z,0000388,01000608,0003.75,0002.28,0001.29,-000.29,0000.53,0000.21,0000.13,-000.03,0000.27,26.2,00.1,0653.4,34.6
2016-05-27T00:33:00Z,0000388,01000608,0003.06,0002.34,0001.45,0000.78,0000.56,-000.05,0000.29,0000.33,0000.21,26.2,00.1,0653.4,34.6
2016-05-27T00:34:00Z,0000388,01000608,0003.95,0002.60,0001.65,0000.00,0000.27,-000.03,0000.31,0000.20,0000.13,26.2,00.1,0653.4,34.6
2016-05-27T00:35:00Z,0000388,01000608,0004.33,0003.04,0001.68,-000.06,-000.10,-000.03,0000.29,0000.21,0000.27,26.3,00.1,0653.4,34.6
2016-05-27T00:36:00Z,0000388,01000608,0003.67,0002.08,0001.36,0000.44,0000.32,0000.08,0000.16,0000.15,-000.11,26.3,00.1,0653.4,34.6
2016-05-27T00:37:00Z,0000388,01000608,0002.78,0002.14,0001.79,-000.65,0000.58,0000.21,0000.33,0000.33,0000.44,26.3,00.1,0653.4,34.6
2016-05-27T00:38:00Z,0000388,01000608,0003.66,0002.62,0001.42,0000.36,0000.21,0000.00,0000.14,0000.10,0000.05,26.3,00.1,0653.5,34.6
2016-05-27T00:39:00Z,0000388,01000608,0003.93,0001.69,0001.00,0000.15,0000.45,0000.02,0000.02,0000.26,0000.23,26.3,00.1,0653.5,34.6
2016-05-27T00:40:00Z,0000388,01000608,0003.47,0002.45,0001.47,-000.05,0000.29,0000.18,0000.35,0000.14,-000.28,26.3,00.1,0653.4,34.6
2016-05-27T00:41:00Z,0000388,01000608,0003.99,0002.87,0000.98,0000.16,0000.48,0000.02,0000.20,-000.03,0000.26,26.3,00.1,0653.4,34.6
2016-05-27T00:42:00Z,0000388,01000608,0003.99,0002.90,0001.19,-000.08,0000.32,-000.05,-000.04,0000.29,0000.39,26.3,00.1,0653.5,34.6
2016-05-27T00:43:00Z,0000388,01000608,0003.33,0002.66,0000.71,0000.29,0000.64,0000.19,0000.23,0000.17,-000.02,26.3,00.1,0653.5,34.6
2016-05-27T00:44:00Z,0000388,01000608,0004.29,0002.40,0001.30,0000.00,0000.26,0000.15,0000.20,0000.22,0000.30,26.3,00.1,0653.4,34.6
2016-05-27T00:45:00Z,0000388,01000608,0003.69,0002.49,0001.49,-000.19,0000.26,0000.13,0000.49,0000.26,0000.17,26.3,00.1,0653.4,34.6
2016-05-27T00:46:00Z,0000388,01000608,0003.80,0002.33,0001.31,0000.16,0000.23,0000.29,0000.13,0000.36,0000.24,26.3,00.1,0653.4,34.6
2016-05-27T00:47:00Z,0000388,01000608,0003.46,0001.80,0001.22,0000.26,0000.50,0000.23,0000.30,-000.07,0000.12,26.3,00.1,0653.4,34.6
2016-05-27T00:48:00Z,0000388,01000608,0004.31,0002.10,0001.07,0000.18,0000.37,0000.06,0000.06,0000.29,0000.19,26.3,00.1,0653.4,34.6
2016-05-27T00:49:00Z,0000388,01000608,0003.48,0002.43,0000.95,0000.03,0000.24,0000.02,0000.17,0000.26,0000.22,26.3,00.1,0653.4,34.6
2016-05-27T00:50:00Z,0000388,01000608,0003.43,0002.54,0001.34,0000.70,0000.50,0000.34,0000.19,-000.10,-000.10,26.3,00.1,0653.4,34.6
2016-05-27T00:51:00Z,0000388,01000608,0002.02,0002.47,0001.79,-000.02,0000.08,0000.19,0000.32,0000.32,0000.03,26.2,00.1,0653.4,34.6
2016-05-27T00:52:00Z,0000388,01000608,0003.66,0002.17,0001.15,0000.58,0000.56,0000.45,-000.07,0000.17,0000.06,26.3,00.1,0653.4,34.6
2016-05-27T00:53:00Z,0000388,01000608,0003.38,0002.59,0001.47,-000.10,0000.26,0000.18,0000.40,0000.13,0000.30,26.3,00.1,0653.4,34.6
2016-05-27T00:54:00Z,0000388,01000608,0003.90,0003.05,0001.38,-000.34,0000.60,0000.23,0000.11,0000.23,0000.05,26.3,00.0,0653.4,34.6
2016-05-27T00:55:00Z,0000388,01000608,0003.37,0002.19,0000.90,0000.40,0000.31,0000.36,0000.26,0000.22,0000.20,26.3,00.1,0653.4,34.6
2016-05-27T00:56:00Z,0000388,01000608,0004.00,0001.50,0001.33,0000.34,0000.00,0000.36,0000.31,0000.18,0000.23,26.3,00.1,0653.4,34.6
2016-05-27T00:57:00Z,0000388,41000608,,,,,,,,,,,,0653.2,34.6
2016-05-27T00:58:00Z,0000388,61000608,,,,,,,,,,26.2,00.0,0652.6,34.6
2016-05-27T00:59:00Z,0000388,21000608,,,,,,,,,,26.2,00.0,0652.6,34.6
2016-05-27T01:00:00Z,0000388,21000608,,,,,,,,,,26.2,00.0,0652.6,34.5
2016-05-27T01:01:00Z,0000388,21000608,,,,,,,,,,26.2,00.0,0652.6,34.5
2016-05-27T01:02:00Z,0000388,21000608,,,,,,,,,,26.2,00.0,0652.6,34.5
2016-05-27T01:03:00Z,0000388,61000608,,,,,,,,,,26.2,00.0,0652.6,34.5
2016-05-27T01:04:00Z,0000388,41000608,0003.60,0002.63,0001.11,0000.52,0000.14,0000.40,0000.43,0000.16,0000.33,26.3,00.1,0653.4,34.5
2016-05-27T01:05:00Z,0000388,01000608,0004.62,0002.28,0001.97,0000.00,0000.69,0000.34,0000.16,0000.13,0000.03,26.3,00.1,0653.5,34.5
2016-05-27T01:06:00Z,0000388,01000608,0004.10,0002.43,0001.39,-000.13,0000.16,0000.18,0000.04,0000.22,0000.10,26.3,00.1,0653.5,34.5
2016-05-27T01:07:00Z,0000388,01000608,0003.93,0002.09,0001.35,0000.57,0000.10,0000.26,0000.43,0000.29,0000.45,26.3,00.0,0653.5,34.5
2016-05-27T01:08:00Z,0000388,01000608,0003.87,0002.17,0000.89,0000.24,0000.37,0000.37,0000.28,0000.19,-000.04,26.3,00.1,0653.5,34.5
2016-05-27T01:09:00Z,0000388,01000608,0004.17,0002.31,0000.94,-000.27,0000.24,0000.29,0000.32,0000.20,0000.45,26.3,00.0,0653.5,34.5
2016-05-27T01:10:00Z,0000388,01000608,0003.93,0002.82,0001.30,-000.08,0000.47,0000.24,-000.08,0000.19,-000.12,26.3,00.0,0653.5,34.5
2016-05-27T01:11:00Z,0000388,01000608,0003.05,0002.49,0001.28,0000.08,0000.39,0000.45,0000.45,0000.08,-000.01,26.3,00.1,0653.5,34.5
2016-05-27T01:12:00Z,0000388,01000608,0004.12,0002.28,0001.49,-000.18,0000.00,0000.37,0000.20,0000.30,0000.33,26.3,00.1,0653.5,34.5
2016-05-27T01:13:00Z,0000388,01000608,0003.70,0002.68,0001.72,-000.48,0000.06,0000.42,0000.12,0000.29,0000.16,26.3,00.0,0653.5,34.5
2016-05-27T01:14:00Z,0000388,01000608,0004.57,0002.65,0001.93,-000.42,0000.42,0000.60,0000.37,0000.07,0000.09,26.3,00.0,0653.5,34.5
2016-05-27T01:15:00Z,0000388,01000608,0003.03,0002.39,0001.95,0000.08,-000.18,0000.28,0000.34,0000.20,0000.28,26.3,00.0,0653.6,34.5
2016-05-27T01:16:00Z,0000388,01000608,0004.21,0002.22,0001.33,0000.21,0000.21,0000.57,0000.11,0000.21,-000.08,26.3,00.0,0653.6,34.5
2016-05-27T01:17:00Z,0000388,01000608,0003.61,0002.40,0001.32,0000.89,0000.31,0000.18,0000.03,0000.16,0000.18,26.3,00.0,0653.6,34.5
2016-05-27T01:18:00Z,0000388,01000608,0004.63,0002.13,0001.01,-000.13,0000.06,0000.15,0000.23,0000.23,0000.58,26.3,00.0,0653.6,34.5
2016-05-27T01:19:00Z,0000388,01000608,0003.76,0002.31,0001.42,0000.23,0000.31,0000.21,0000.26,0000.21,-000.09,26.3,00.0,0653.6,34.5
2016-05-27T01:20:00Z,0000388,01000608,0004.37,0002.23,0001.33,-000.34,0000.69,0000.08,0000.04,-000.00,-000.10,26.3,00.0,0653.6,34.5
2016-05-27T01:21:00Z,0000388,01000608,0004.17,0002.74,0001.95,-000.21,0000.45,0000.18,0000.17,0000.36,0000.15,26.3,00.0,0653.6,34.5
2016-05-27T01:22:00Z,0000388,01000608,0002.87,0002.41,0001.67,0000.32,-000.06,0000.34,0000.18,0000.17,0000.22,26.3,00.0,0653.6,34.5
2016-05-27T01:23:00Z,0000388,01000608,0003.91,0003.19,0001.75,-000.24,0000.02,0000.37,0000.31,0000.16,0000.45,26.3,00.1,0653.7,34.5
2016-05-27T01:24:00Z,0000388,01000608,0003.67,0002.49,0001.28,0000.13,0000.40,0000.66,0000.16,0000.10,-000.09,26.3,00.0,0653.7,34.5
2016-05-27T01:25:00Z,0000388,01000608,0004.64,0002.42,0001.38,0000.48,0000.23,0000.06,0000.27,0000.27,0000.18,26.3,00.0,0653.6,34.5
2016-05-27T01:26:00Z,0000388,01000608,0004.69,0003.11,0001.33,0000.47,-000.18,0000.42,0000.32,0000.16,0000.22,26.3,00.0,0653.7,34.5
2016-05-27T01:27:00Z,0000388,01000608,0004.34,0002.07,0001.76,0000.50,0000.29,0000.49,0000.12,0000.19,0000.12,26.3,00.0,0653.7,34.5
2016-05-27T01:28:00Z,0000388,01000608,0003.82,0003.23,0001.52,-000.29,0000.16,0000.19,0000.19,0000.27,0000.18,26.3,00.0,0653.7,34.5
2016-05-27T01:29:00Z,0000388,01000608,0003.77,0002.64,0001.81,-000.02,0000.39,0000.65,0000.14,0000.15,0000.28,26.3,00.0,0653.7,34.5
2016-05-27T01:30:00Z,0000388,01000608,0004.64,0002.77,0001.54,0000.18,0000.08,0000.37,0000.33,0000.27,0000.19,26.3,00.0,0653.7,34.6
2016-05-27T01:31:00Z,0000388,01000608,0004.30,0002.78,0001.48,0000.26,0000.06,0000.37,0000.26,0000.06,0000.01,26.3,00.0,0653.7,34.6
2016-05-27T01:32:00Z,0000388,01000608,0004.46,0003.04,0001.55,-000.08,0000.37,0000.78,0000.03,0000.29,0000.22,26.3,00.0,0653.7,34.6
2016-05-27T01:33:00Z,0000388,01000608,0003.87,0002.64,0001.17,0000.24,0000.39,0000.19,0000.28,0000.13,-000.03,26.3,00.0,0653.7,34.6
2016-05-27T01:34:00Z,0000388,01000608,0004.37,0002.27,0001.31,0000.50,0000.50,0000.32,0000.23,0000.06,-000.03,26.3,00.0,0653.7,34.6
2016-05-27T01:35:00Z,0000388,01000608,0005.09,0002.40,0001.44,0000.48,0000.32,0000.15,0000.31,0000.38,0000.32,26.3,00.0,0653.7,34.6
2016-05-27T01:36:00Z,0000388,01000608,0004.61,0002.68,0001.30,0000.21,0000.19,0000.10,-000.01,0000.16,0000.28,26.3,00.0,0653.7,34.6
2016-05-27T01:37:00Z,0000388,01000608,0003.87,0002.63,0001.27,0000.19,-000.02,0000.65,0000.23,0000.26,0000.18,26.3,00.0,0653.7,34.6
2016-05-27T01:38:00Z,0000388,01000608,0004.05,0002.35,0001.02,0000.68,0000.10,0000.29,0000.06,-000.08,0000.06,26.3,00.0,0653.7,34.6
2016-05-27T01:39:00Z,0000388,01000608,0004.26,0002.52,0001.41,0000.60,-000.06,0000.44,0000.25,0000.37,0000.04,26.3,00.0,0653.7,34.6
2016-05-27T01:40:00Z,0000388,01000608,0003.72,0002.14,0000.95,0000.44,-000.27,0000.37,0000.22,0000.04,0000.17,26.3,00.0,0653.7,34.6
2016-05-27T01:41:00Z,0000388,01000608,0004.05,0002.56,0001.50,0000.86,0000.50,0000.03,0000.37,0000.31,0000.39,26.3,00.0,0653.7,34.6
2016-05-27T01:42:00Z,0000388,01000608,0004.83,0002.71,0001.43,0000.19,-000.06,0000.26,-000.17,-000.06,0000.08,26.3,00.0,0653.7,34.6
2016-05-27T01:43:00Z,0000388,01000608,0004.76,0002.82,0001.48,0000.40,0000.50,0000.23,0000.52,0000.26,-000.04,26.3,00.0,0653.7,34.6
2016-05-27T01:44:00Z,0000388,01000608,0004.26,0002.30,0001.10,-000.10,0000.90,-000.05,0000.20,0000.17,0000.25,26.4,00.0,0653.8,34.6
2016-05-27T01:45:00Z,0000388,01000608,0003.57,0002.78,0001.09,0000.08,0000.10,0000.31,0000.20,0000.35,0000.16,26.4,00.0,0653.8,34.6
2016-05-27T01:46:00Z,0000388,01000608,0003.76,0001.87,0001.38,0000.23,-000.10,0000.76,0000.19,0000.29,0000.24,26.3,00.0,0653.8,34.6
2016-05-27T01:47:00Z,0000388,01000608,0004.77,0002.39,0001.55,0000.10,0000.31,0000.02,0000.27,0000.30,0000.24,26.4,00.0,0653.8,34.6
2016-05-27T01:48:00Z,0000388,01000608,0004.11,0001.99,0001.54,0000.63,0000.14,0000.15,0000.27,0000.06,0000.02,26.4,00.0,0653.7,34.6
2016-05-27T01:49:00Z,0000388,01000608,0003.24,0002.75,0001.09,0000.79,0000.06,0000.40,0000.38,0000.29,0000.27,26.3,00.0,0653.8,34.6
2016-05-27T01:50:00Z,0000388,01000608,0004.98,0002.63,0001.42,0000.34,0000.13,0000.15,0000.00,0000.06,0000.03,26.3,00.0,0653.8,34.6
2016-05-27T01:51:00Z,0000388,01000608,0003.63,0002.27,0001.41,0000.03,-000.19,0000.58,0000.34,0000.33,0000.38,26.3,00.0,0653.7,34.6
2016-05-27T01:52:00Z,0000388,01000608,0003.28,0002.71,0001.37,0000.11,0000.32,0000.11,0000.18,0000.08,0000.03,26.3,00.0,0653.8,34.6
2016-05-27T01:53:00Z,0000388,01000608,0003.88,0002.28,0001.58,0000.27,0000.29,0000.26,0000.28,0000.35,0000.13,26.3,00.0,0653.8,34.6
2016-05-27T01:54:00Z,0000388,01000608,0004.06,0002.41,0000.96,-000.10,-000.10,0000.15,0000.03,0000.05,0000.13,26.3,00.0,0653.8,34.6
2016-05-27T01:55:00Z,0000388,01000608,0004.39,0002.39,0000.97,-000.34,0000.10,0000.34,0000.30,0000.06,0000.17,26.3,00.0,0653.8,34.6
2016-05-27T01:56:00Z,0000388,01000608,0003.89,0002.85,0001.55,0000.26,0000.10,0000.13,0000.17,0000.40,0000.18,26.3,00.0,0653.7,34.6
2016-05-27T01:57:00Z,0000388,41000608,,,,,,,,,,,,0653.7,34.6
2016-05-27T01:58:00Z,0000388,61000608,,,,,,,,,,26.2,00.0,0652.9,34.6
2016-05-27T01:59:00Z,0000388,21000608,,,,,,,,,,26.2,00.0,0652.9,34.6
2016-05-27T02:00:00Z,0000388,21000608,,,,,,,,,,26.2,00.0,0652.9,34.5
2016-05-27T02:01:00Z,0000388,21000608,,,,,,,,,,26.2,00.0,0652.9,34.5
2016-05-27T02:02:00Z,0000388,21000608,,,,,,,,,,26.2,00.0,0652.9,34.5
2016-05-27T02:03:00Z,0000388,61000608,,,,,,,,,,26.2,00.0,0652.9,34.5
2016-05-27T02:04:00Z,0000388,41000608,0003.47,0002.54,0001.47,0000.10,0000.69,0000.47,0000.10,0000.19,0000.20,26.3,00.0,0653.6,34.5
2016-05-27T02:05:00Z,0000388,01000608,0003.24,0002.47,0001.33,0001.08,0000.42,0000.55,0000.29,0000.11,0000.29,26.3,00.0,0653.7,34.5
2016-05-27T02:06:00Z,0000388,01000608,0002.83,0002.41,0001.38,0000.69,0000.61,0000.66,0000.15,0000.29,-000.23,26.3,00.0,0653.8,34.5
2016-05-27T02:07:00Z,0000388,01000608,0003.77,0002.63,0001.38,0000.76,0000.55,0000.21,0000.35,0000.24,0000.55,26.3,00.0,0653.8,34.5
2016-05-27T02:08:00Z,0000388,01000608,0003.08,0002.59,0001.47,0000.66,0000.06,-000.05,0000.02,0000.05,0000.19,26.3,00.0,0653.8,34.5
2016-05-27T02:09:00Z,0000388,01000608,0003.96,0002.41,0001.42,0000.44,0000.39,0000.29,0000.41,0000.23,-000.17,26.3,00.0,0653.8,34.5
2016-05-27T02:10:00Z,0000388,01000608,0003.42,0002.61,0001.38,0001.13,0000.21,0000.50,0000.24,0000.30,0000.30,26.3,00.0,0653.7,34.5
2016-05-27T02:11:00Z,0000388,01000608,0004.01,0001.98,0001.18,0000.32,0000.32,0000.65,0000.28,0000.18,0000.11,26.3,00.0,0653.8,34.5
2016-05-27T02:12:00Z,0000388,01000608,0003.55,0003.05,0001.51,0001.11,0000.47,0000.26,0000.15,0000.15,0000.20,26.3,00.0,0653.8,34.5
2016-05-27T02:13:00Z,0000388,01000608,0003.04,0003.45,0001.48,0000.57,0000.68,0000.50,0000.23,0000.23,-000.03,26.3,00.0,0653.8,34.5
2016-05-27T02:14:00Z,0000388,01000608,0002.94,0002.81,0001.28,0000.34,0000.40,0000.15,0000.22,0000.21,0000.13,26.3,00.0,0653.8,34.5
2016-05-27T02:15:00Z,0000388,01000608,0002.71,0002.60,0001.00,0000.61,0000.68,0000.18,0000.30,0000.24,0000.28,26.3,00.0,0653.8,34.5
2016-05-27T02:16:00Z,0000388,01000608,0004.10,0002.93,0001.67,0001.08,0000.50,0000.34,0000.09,-000.03,0000.39,26.3,00.0,0653.8,34.5
2016-05-27T02:17:00Z,0000388,01000608,0004.15,0002.72,0001.48,0000.94,0000.74,0000.68,0000.29,0000.32,-000.15,26.3,00.0,0653.8,34.5
2016-05-27T02:18:00Z,0000388,01000608,0004.12,0002.81,0001.30,0000.53,0000.60,0000.50,0000.03,0000.33,0000.23,26.3,00.0,0653.8,34.5
2016-05-27T02:19:00Z,0000388,01000608,0003.12,0002.53,0001.67,0000.69,0000.42,0000.26,0000.24,-000.05,0000.34,26.3,00.0,0653.8,34.5
2016-05-27T02:20:00Z,0000388,01000608,0003.84,0002.38,0001.50,0001.05,0000.55,0000.36,0000.20,0000.17,0000.05,26.3,00.0,0653.8,34.5
2016-05-27T02:21:00Z,0000388,01000608,0003.06,0002.31,0001.35,0000.90,0000.18,0000.47,0000.18,0000.06,0000.16,26.3,00.0,0653.8,34.5
2016-05-27T02:22:00Z,0000388,01000608,0003.99,0003.05,0001.50,0000.79,0000.79,0000.32,0000.15,0000.15,-000.26,26.3,00.0,0653.8,34.5
2016-05-27T02:23:00Z,0000388,01000608,0004.49,0002.04,0001.60,0000.40,0000.24,0000.11,0000.36,0000.26,0000.38,26.3,00.0,0653.8,34.5
2016-05-27T02:24:00Z,0000388,01000608,0003.24,0002.37,0001.33,0000.16,-000.02,0000.27,0000.08,0000.16,0000.16,26.3,00.0,0653.8,34.5
2016-05-27T02:25:00Z,0000388,01000608,0003.84,0002.68,0001.29,0000.50,0000.03,0000.23,0000.29,0000.30,0000.22,26.3,00.0,0653.7,34.5
2016-05-27T02:26:00Z,0000388,01000608,0003.52,0002.35,0001.62,0001.02,0000.64,0000.60,0000.11,0000.12,0000.23,26.3,00.0,0653.8,34.5
2016-05-27T02:27:00Z,0000388,01000608,0003.69,0003.14,0001.24,0000.89,0000.37,0000.28,0000.47,0000.24,0000.02,26.3,00.0,0653.7,34.5
2016-05-27T02:28:00Z,0000388,01000608,0002.59,0002.41,0001.32,0000.13,0000.35,0000.18,0000.07,0000.10,-000.10,26.3,00.0,0653.7,34.5
2016-05-27T02:29:00Z,0000388,01000608,0003.90,0002.49,0001.30,0000.82,0000.47,0000.45,0000.28,0000.20,0000.43,26.3,00.0,0653.8,34.5
2016-05-27T02:30:00Z,0000388,01000608,0004.01,0002.64,0001.00,0000.76,0000.51,0000.40,0000.14,0000.25,0000.07,26.3,00.0,0653.8,34.5
2016-05-27T02:31:00Z,0000388,01000608,0003.69,0003.01,0001.08,0000.65,0000.08,0000.68,0000.12,0000.08,0000.27,26.3,00.0,0653.8,34.5
2016-05-27T02:32:00Z,0000388,01000608,0004.07,0002.33,0000.69,0001.26,0000.51,-000.15,0000.31,0000.29,0000.25,26.3,00.0,0653.8,34.5
2016-05-27T02:33:00Z,0000388,01000608,0003.58,0002.36,0001.18,0000.87,0000.21,0000.24,0000.08,0000.08,-000.07,26.3,00.0,0653.8,34.5
2016-05-27T02:34:00Z,0000388,01000608,0002.89,0002.55,0001.07,0000.27,0000.43,0000.50,0000.12,0000.14,0000.13,26.3,00.0,0653.8,34.5
2016-05-27T02:35:00Z,0000388,01000608,0002.46,0002.55,0001.27,0000.71,0000.14,0000.49,0000.11,0000.17,0000.09,26.3,00.0,0653.8,34.5
2016-05-27T02:36:00Z,0000388,01000608,0003.35,0001.68,0001.37,0000.99,0000.24,0000.19,0000.24,0000.21,0000.26,26.3,00.0,0653.8,34.5
2016-05-27T02:37:00Z,0000388,01000608,0004.17,0002.62,0001.11,0001.39,0000.08,0000.08,0000.16,0000.04,-000.02,26.3,00.0,0653.8,34.5
2016-05-27T02:38:00Z,0000388,01000608,0003.70,0002.11,0001.42,0000.86,0000.26,0000.21,0000.28,0000.21,0000.05,26.3,00.0,0653.8,34.5
2016-05-27T02:39:00Z,0000388,01000608,0004.27,0002.54,0001.54,0000.37,0000.77,0000.68,0000.33,0000.36,0000.21,26.3,00.0,0653.8,34.5
2016-05-27T02:40:00Z,0000388,01000608,0002.27,0002.71,0001.21,0001.03,0000.51,0000.23,0000.27,-000.01,0000.06,26.3,00.0,0653.8,34.5
2016-05-27T02:41:00Z,0000388,01000608,0003.86,0002.29,0001.45,0000.55,0000.56,0000.71,0000.00,0000.20,0000.37,26.3,00.0,0653.8,34.5
2016-05-27T02:42:00Z,0000388,01000608,0003.44,0002.23,0001.11,0001.05,0000.37,0000.00,0000.30,0000.20,0000.09,26.3,00.0,0653.8,34.5
2016-05-27T02:43:00Z,0000388,01000608,0003.77,0002.41,0001.58,0000.32,0001.09,0000.11,0000.17,0000.19,-000.01,26.3,00.0,0653.8,34.5
2016-05-27T02:44:00Z,0000388,01000608,0002.77,0002.46,0001.32,0001.37,0000.64,0000.29,0000.16,0000.32,0000.05,26.3,00.0,0653.8,34.5
2016-05-27T02:45:00Z,0000388,01000608,0003.49,0001.97,0001.19,0000.97,0000.48,0000.47,0000.24,0000.06,0000.05,26.3,00.0,0653.8,34.6
2016-05-27T02:46:00Z,0000388,01000608,0003.14,0002.66,0001.63,0000.76,0000.32,0000.58,0000.15,0000.12,0000.47,26.3,00.0,0653.7,34.6
2016-05-27T02:47:00Z,0000388,01000608,0004.26,0002.11,0001.45,0000.87,0000.56,0000.42,0000.27,0000.37,0000.15,26.3,00.0,0653.8,34.6
2016-05-27T02:48:00Z,0000388,01000608,0003.11,0002.51,0001.55,0001.02,0000.18,0000.45,0000.20,0000.14,0000.03,26.3,00.0,0653.8,34.6
2016-05-27T02:49:00Z,0000388,01000608,0003.59,0002.52,0001.41,0000.69,0000.34,0000.61,0000.30,0000.13,0000.41,26.3,00.0,0653.8,34.6
2016-05-27T02:50:00Z,0000388,01000608,0003.16,0002.55,0001.46,0001.21,0000.21,0000.18,0000.16,0000.11,-000.07,26.3,00.0,0653.8,34.6
2016-05-27T02:51:00Z,0000388,01000608,0003.31,0003.09,0001.68,-000.19,0000.43,0000.34,0000.29,0000.24,-000.07,26.3,00.0,0653.8,34.6
2016-05-27T02:52:00Z,0000388,01000608,0003.86,0002.39,0001.66,0000.86,0000.92,0000.60,0000.12,0000.23,0000.41,26.3,00.0,0653.8,34.6
2016-05-27T02:53:00Z,0000388,01000608,0004.22,0001.89,0001.76,0000.58,0000.43,0000.06,0000.15,0000.27,0000.20,26.3,00.0,0653.8,34.6
2016-05-27T02:54:00Z,0000388,01000608,0004.08,0002.56,0001.16,0001.05,0000.51,0000.27,0000.25,0000.10,0000.15,26.3,00.0,0653.8,34.6
2016-05-27T02:55:00Z,0000388,01000608,0004.07,0002.99,0001.16,0000.08,0000.18,0000.44,0000.06,0000.08,0000.38,26.3,00.0,0653.8,34.6
2016-05-27T02:56:00Z,0000388,01000608,0004.23,0002.25,0001.08,0000.37,0000.48,0000.16,0000.36,0000.34,-000.13,26.3,00.0,0653.8,34.6
2016-05-27T02:57:00Z,0000388,41000608,,,,,,,,,,,,0653.8,34.6
2016-05-27T02:58:00Z,0000388,61000608,,,,,,,,,,26.2,00.0,0652.9,34.6
2016-05-27T02:59:00Z,0000388,21000608,,,,,,,,,,26.2,00.0,0652.9,34.6
2016-05-27T03:00:00Z,0000388,21000608,,,,,,,,,,26.2,00.0,0652.9,34.5
2016-05-27T03:01:00Z,0000388,21000608,,,,,,,,,,26.2,00.0,0652.9,34.5
2016-05-27T03:02:00Z,0000388,21000608,,,,,,,,,,26.2,00.0,0652.9,34.5
2016-05-27T03:03:00Z,0000388,61000608,,,,,,,,,,26.2,00.0,0652.9,34.5
2016-05-27T03:04:00Z,0000388,41000608,0003.61,0002.45,0001.08,0000.53,0000.39,0000.23,0000.31,0000.04,0000.16,26.3,00.0,0653.7,34.5
2016-05-27T03:05:00Z,0000388,01000608,0004.13,0001.81,0001.40,0000.48,-000.18,0000.23,0000.19,0000.32,0000.22,26.3,00.0,0653.8,34.5
2016-05-27T03:06:00Z,0000388,01000608,0003.89,0002.65,0001.07,0000.55,-000.05,0000.19,0000.32,0000.08,-000.04,26.3,00.0,0653.8,34.5
2016-05-27T03:07:00Z,0000388,01000608,0003.76,0002.46,0000.77,0000.10,0000.05,-000.13,0000.15,0000.20,0000.21,26.3,00.0,0653.8,34.5
2016-05-27T03:08:00Z,0000388,01000608,0004.47,0002.40,0001.31,0000.06,0000.29,0000.32,0000.10,0000.17,0000.37,26.3,00.0,0653.8,34.5
2016-05-27T03:09:00Z,0000388,01000608,0003.10,0002.23,0001.37,0000.42,0000.18,0000.13,0000.35,0000.35,0000.14,26.3,00.0,0653.8,34.5
2016-05-27T03:10:00Z,0000388,01000608,0003.69,0002.34,0001.24,0000.11,0000.26,0000.29,0000.13,0000.14,0000.07,26.3,00.0,0653.8,34.5
2016-05-27T03:11:00Z,0000388,01000608,0003.61,0002.18,0001.06,0000.53,0000.47,0000.42,0000.18,0000.13,0000.27,26.3,00.0,0653.8,34.5
2016-05-27T03:12:00Z,0000388,01000608,0003.37,0002.68,0001.87,0000.37,0000.08,0000.47,0000.17,0000.18,-000.08,26.3,00.0,0653.8,34.5